Regional Weather Roundup
Issued by NWS

Home | Current Version | Previous Version | Graphics & Text | Print | Product List | Glossary Off
Versions: 1 2 3 4 5 6 7 8 9 10 11 12 13 14 15 16 17 18 19 20 21 22 23 24 25 26 27 28 29 30 31 32 33 34 35 36 37 38 39 40 41 42 43 44 45 46 47 48 49 50

000
ASUS44 KFWD 300715
RWRTX
NORTH TEXAS HOURLY WEATHER ROUNDUP
NATIONAL WEATHER SERVICE FORT WORTH TX
200 AM CDT THU MAR 30 2017

NOTE: "FAIR" INDICATES FEW OR NO CLOUDS BELOW 12,000 FEET WITH NO
SIGNIFICANT WEATHER AND/OR OBSTRUCTIONS TO VISIBILITY.

TXZ118-119-300800-
DALLAS/FORT WORTH METROPLEX

CITY           SKY/WX    TMP DP  RH WIND       PRES   REMARKS
DFW AIRPORT    PTCLDY    57  46  66 W10       29.83S
DALLAS LOVE    PTCLDY    58  45  62 W12       29.85R
FTW MEACHAM    CLEAR     55  43  63 W12       29.86S
DAL-EXECUTIVE  CLEAR     56  47  71 W10       29.85R
FTW-ALLIANCE   CLEAR     53  45  74 W7        29.85F
FTW-NAS-JRB    PTCLDY    55  44  66 W9        29.87S
FTW-SPINKS     PTCLDY    53  46  77 W6        29.89S
ARLINGTON      CLEAR     56  44  64 W8G20     29.86S
GRAND PRAIRIE  PTCLDY    57  44  60 W13       29.88S
ADDISON        CLEAR     55  45  68 W7        29.87R
MESQUITE       CLEAR     56  46  67 W10G17    29.86R
LANCASTER      CLEAR     56  46  70 W10G17    29.87R
$$

TXZ091>094-102>105-117-120-121-131>134-300800-
NORTH CENTRAL TEXAS

CITY           SKY/WX    TMP DP  RH WIND       PRES   REMARKS
SHRMAN/DENISON PTCLDY    50  44  80 W10       29.82S
GAINESVILLE    CLEAR     50  40  68 NW14      29.85S
BOWIE          CLEAR     50  44  78 W10       29.85S
BRIDGEPORT     PTCLDY    53  43  70 W12G17    29.88F
DECATUR        CLEAR     50  43  75 W9        29.85S
DENTON         CLEAR     52  44  74 W9        29.85S
MCKINNEY       CLEAR     54  46  74 W9        29.84R
BONHAM         CLEAR     50  43  76 W6        29.82R
GREENVILLE     CLEAR     54  45  71 W6        29.84R
ROCKWALL       CLEAR     56  45  66 NW8       29.85R
TERRELL        CLEAR     56  46  69 W8        29.85R
WAXAHACHIE     CLEAR     55  48  78 W10       29.88R
CLEBURNE       PTCLDY    54  50  87 W7        29.90S
GRANBURY       CLEAR     54  47  78 W6        29.90S
$$

TXZ083>090-098>101-113>116-127>130-139>142-154-155-300800-
WESTERN NORTH TEXAS

CITY           SKY/WX    TMP DP  RH WIND       PRES   REMARKS
WICHITA FALLS  CLEAR     46  41  82 W12       29.85F
WF-KICKAPOO    CLEAR     50  43  77 W8        29.87F
VERNON         PTCLDY    50  40  69 W12       29.89F
ABILENE        CLEAR     49  43  80 NW14      29.95F
ABILENE-DYESS  CLEAR     49  44  82 NW13      29.94F
GRAHAM         PTCLDY    50  45  81 W8        29.89S
BRECKENRIDGE   CLEAR     51  45  81 W7        29.92F
CISCO          CLEAR     48  46  93 W8        29.93F
RANGER         CLEAR     48  45  87 W5        29.92F
MINERAL WELLS  CLOUDY    51  44  77 W10       29.87F
STEPHENVILLE   CLEAR     52  46  78 W10G16    29.93F
COMANCHE       CLEAR     51  47  87 W9        29.93F
BROWNWOOD      CLEAR     50  46  87 NW9       29.94F
COLEMAN        CLEAR     49  43  81 W5        29.96S
$$

TXZ143>147-156>162-174-175-300800-
CENTRAL TEXAS

CITY           SKY/WX    TMP DP  RH WIND       PRES   REMARKS
WACO           CLEAR     56  49  77 W9        29.89S
WACO-MCGREGOR  CLEAR     56  49  77 W9        29.90S
HILLSBORO      CLEAR     55  49  79 W10       29.88S
CORSICANA      CLEAR     56  49  77 NW12      29.88R
MEXIA          CLEAR     56  49  75 NW10      29.87S
HEARNE         CLEAR     60  55  83 NW8       29.88R
CAMERON        CLEAR     59  52  79 NW8       29.89R
TEMPLE         CLEAR     57  51  80 NW18G24   29.90
KILLEEN        CLEAR     56  47  73 NW16      29.91S
KILLEEN-SKYLRK CLEAR     56  49  77 NW13      29.91S
FORT HOOD      CLEAR     55  49  81 NW15      29.89R
GATESVILLE     CLEAR     55  48  76 NW6       29.94S
HAMILTON       CLEAR     51  47  88 W5        29.93F
LAMPASAS       CLEAR     54  50  89 W6        29.93F
$$

TXZ095>097-106>112-122>126-135>138-148>153-164>167-300800-
EAST TEXAS

CITY           SKY/WX    TMP DP  RH WIND       PRES   REMARKS
PARIS          CLEAR     55  43  62 W12       29.80R
SULPHUR SPRNGS CLEAR     56  47  70 W15       29.83S
MOUNT PLEASANT PTCLDY    59  50  72 W12       29.80R
GILMER         MOCLDY    60  53  77 W7        29.79R
MINEOLA        PTCLDY    57  48  72 NW6       29.83R
TYLER          PTCLDY    60  52  74 NW15      29.82R
LONGVIEW       MOCLDY    62  58  86 W7        29.78S
MARSHALL       CLEAR     65  63  92 SW3       29.78S
ATHENS         CLEAR     57  46  67 NW3       29.84R
PALESTINE      CLEAR     61  53  75 NW17G25   29.85S
JACKSONVILLE   CLEAR     61  55  80 W9        29.83R
HENDERSON      PTCLDY    61  58  90 W6        29.81R
NACOGDOCHES    CLOUDY    61  59  94 W5        29.78R
LUFKIN         FOG       60  60 100 MISG      29.79F VSB 1/2
$$

SUPPLEMENTAL OBSERVATIONS (CENTRAL)

CITY           SKY/WX    TMP DP  RH WIND       PRES   REMARKS
DENISON DAM      N/A     54  45  71 W14         N/A
CADDO GRASSLND   N/A     54  43  66 W5          N/A
PAT MAYSE LAKE   N/A     54  43  66 W9          N/A
GREENVILLE       N/A     54  45  71 W8G16       N/A
CEDAR HILL       N/A     55  45  67 W3          N/A
ATHENS           N/A     57  46  67 NW3         N/A
LAKE LIMESTONE   N/A     59  50  72 NW9         N/A
MCGREGOR         N/A     55  48  76 NW5         N/A
TEMPLE           N/A     57  48  72 NW7G17      N/A
$$

SUPPLEMENTAL OBSERVATIONS (WEST)

CITY           SKY/WX    TMP DP  RH WIND       PRES   REMARKS
MILLERS CREEK    N/A     52  45  76 W12         N/A
POSSUM KINGDOM   N/A     50  45  81 W7          N/A
LBJ GRASSLAND    N/A     50  43  76 W6          N/A
GRANBURY         N/A     54  46  76 W7          N/A
COMANCHE         N/A     52  46  82 W13         N/A
HAMBY            N/A     48  43  81 W10         N/A
IVIE RESERVOIR   N/A     50  45  81 W6          N/A
COLORADO BEND    N/A     50  45  81 NW3         N/A
$$

SUPPLEMENTAL OBSERVATIONS (EAST)

CITY           SKY/WX    TMP DP  RH WIND       PRES   REMARKS
CLARKSVILLE      N/A     55  46  71 W3G12       N/A
TEXARKANA        N/A     61  59  94 SW1         N/A
LINDEN           N/A     63  54  72 NW6         N/A
CADDO LAKE       N/A    N/A N/A N/A W2          N/A
GILMER           N/A     61  52  72 NW9         N/A
HENDERSON        N/A     63  57  82 NW8         N/A
LUFKIN           N/A    N/A N/A N/A MISG        N/A
N SABINE NF      N/A    N/A N/A N/A MISG        N/A
S SABINE NF      N/A    N/A N/A N/A N3          N/A
$$

SUPPLEMENTAL OBSERVATIONS ARE A COLLECTION OF AUTOMATED INSTRUMENTS
THAT ARE MAINTAINED BY A VARIETY OF FEDERAL AND STATE AGENCIES.
CERTAIN ELEMENTS...SUCH AS HUMIDITY VALUES AND SUSTAINED WIND
SPEEDS...MAY BE APPROXIMATED.





USA.gov is the U.S. government's official web portal to all federal, state and local government web resources and services.